Weather History for Imperial, NE

Change the Weather History Date:

Monday, May 19, 2014

  Actual Average Record
Temperature  
Mean Temperature 69 °F 61 °F  
Max Temperature 89 °F 75 °F 100 °F (1934)
Min Temperature 49 °F 48 °F 30 °F (1915)
Degree Days  
Heating Degree Days 0 5  
Month to date heating degree days 215 155  
Cooling Degree Days 4 2  
Month to date cooling degree days 4 16  
Year to date cooling degree days 5 17  
Growing Degree Days 20 (Base 50)    
Moisture  
Dew Point 48 °F    
Average Humidity 50    
Maximum Humidity 86    
Minimum Humidity 13    
Precipitation  
Precipitation 0.00 in 0.10 in 1.39 in (2011)
Sea Level Pressure  
Sea Level Pressure 29.62 in    
Wind  
Wind Speed 13 mph (NE)    
Max Wind Speed 31 mph    
Max Gust Speed 43 mph    
Visibility 10 miles    
Events Thunderstorm    
T = Trace of Precipitation, MM = Missing Value Source: NWS Daily Summary

Daily Weather History Graph

Daily Weather History Graph

Search for Another Location

Airport:

Trip Planner

Search our weather history database for the weather conditions in past years. The results will help you decide how hot, cold, wet, or windy it might be!

Date:

Astronomy

May. 19, 2014 Rise Set
Actual Time 5:26 AM MDT 8:00 PM MDT
Civil Twilight 4:55 AM MDT 8:31 PM MDT
Nautical Twilight 4:16 AM MDT 9:10 PM MDT
Astronomical Twilight 3:32 AM MDT 9:54 PM MDT
Moon No Moon Rise 10:26 AM MDT (5/19)
Length of Visible Light 15h 36m
Length of Day
14h 33m
Waning Gibbous, 70% of the Moon is Illuminated
May 19
Waning Gibbous
May 21
Last Quarter
May 28
New
Jun 5
First Quarter
Jun 12
Full

Hourly Weather History & Observations

Time (MDT) Temp. Dew Point Humidity Pressure Visibility Wind Dir Wind Speed Gust Speed Precip Events Conditions
12:53 AM 62.1 °F 51.1 °F 67% 29.55 in 10.0 mi SE 13.8 mph - N/A   Clear
1:53 AM 64.0 °F 51.1 °F 63% 29.52 in 10.0 mi South 18.4 mph 27.6 mph N/A   Clear
2:53 AM 61.0 °F 51.1 °F 70% 29.51 in 10.0 mi SSE 6.9 mph - N/A   Clear
3:53 AM 57.0 °F 50.0 °F 77% 29.53 in 10.0 mi Calm Calm - N/A   Clear
4:53 AM 50.0 °F 46.0 °F 86% 29.53 in 10.0 mi Calm Calm - N/A   Clear
5:53 AM 50.0 °F 46.9 °F 89% 29.55 in 9.0 mi Calm Calm - N/A   Clear
7:53 AM 61.0 °F 52.0 °F 72% 29.60 in 10.0 mi NNW 15.0 mph - N/A   Unknown
8:53 AM 68.0 °F 53.1 °F 59% 29.60 in 10.0 mi NNW 21.9 mph - N/A   Clear
9:53 AM 72.0 °F 53.1 °F 51% 29.59 in 10.0 mi NNW 21.9 mph - N/A   Clear
10:53 AM 79.0 °F 48.0 °F 34% 29.58 in 10.0 mi North 21.9 mph 31.1 mph N/A   Clear
11:53 AM 82.4 °F 44.6 °F 26% 29.67 in 10.0 mi NNE 20.7 mph 26.5 mph N/A   Clear
12:53 PM 84.9 °F 45.0 °F 25% 29.57 in 10.0 mi North 16.1 mph 24.2 mph N/A   Clear
1:53 PM 86.0 °F 42.1 °F 21% 29.57 in 10.0 mi NE 13.8 mph 21.9 mph N/A   Clear
2:53 PM 88.0 °F 39.9 °F 18% 29.58 in 10.0 mi North 8.1 mph - N/A   Clear
3:53 PM 88.0 °F 36.0 °F 16% 29.59 in 10.0 mi NNE 6.9 mph 18.4 mph N/A   Clear
4:53 PM 89.1 °F 32.0 °F 13% 29.60 in 10.0 mi North 8.1 mph - N/A   Clear
5:53 PM 87.1 °F 34.0 °F 15% 29.61 in 10.0 mi NE 12.7 mph - N/A   Clear
6:53 PM 81.0 °F 52.0 °F 36% 29.64 in 10.0 mi ENE 13.8 mph - N/A   Clear
7:53 PM 73.9 °F 54.0 °F 50% 29.64 in 10.0 mi ENE 16.1 mph - N/A   Clear
8:53 PM 70.0 °F 55.0 °F 59% 29.65 in 10.0 mi ENE 13.8 mph - N/A   Clear
9:30 PM 68.0 °F 55.9 °F 65% 29.76 in 10.0 mi NE 18.4 mph - N/A Thunderstorm Clear
9:53 PM 69.1 °F 55.0 °F 61% 29.72 in 10.0 mi NE 29.9 mph 40.3 mph N/A Thunderstorm Thunderstorm
10:30 PM 66.9 °F 53.1 °F 61% 29.79 in 10.0 mi ENE 19.6 mph 31.1 mph N/A   Clear
10:53 PM 64.9 °F 53.1 °F 65% 29.72 in 10.0 mi ENE 15.0 mph - N/A   Clear
11:53 PM 60.8 °F 51.8 °F 72% 29.81 in 10.0 mi NNE 12.7 mph - N/A   Clear